This demonstration page uses our WeatherBlox Daily Observations layout. Learn more.

Left ArrowRight Arrow

Hourly Observations for September 24, 2018

Temp ( °F °C ) Dew Point ( °F °C ) Humidity (%) Winds ( mph kmh ) Pressure ( in mb ) Visibility ( mi km ) Precip ( " mm )
12:53 am 00:53 Clear 62 16.7 57 13.9 84 84 S 8 13 29.88 1012 10 16 0.00 0.00
1:53 am 01:53 Clear 61 16.1 57 13.9 87 87 SSE 9 15 29.86 1011 10 16 0.00 0.00
2:53 am 02:53 Clear 60 15.6 56 13.3 86 86 S 10 17 29.85 1011 10 16 0.00 0.00
3:53 am 03:53 Clear 59 15 55 12.8 87 87 S 9 15 29.84 1011 10 16 0.00 0.00
4:53 am 04:53 Clear 58 14.4 55 12.8 90 90 S 10 17 29.83 1010 10 16 0.00 0.00
5:53 am 05:53 Clear 57 13.9 55 12.8 93 93 SSE 12 19 29.82 1010 10 16 0.00 0.00
6:53 am 06:53 Partly Cloudy 56 13.3 55 12.8 97 97 S 12 19 29.82 1010 10 16 0.00 0.00
7:02 am 07:02 Mostly Cloudy 55 13 55 13 100 100 S 10 17 29.83 1010 10 16 0.00 0.00
7:53 am 07:53 Cloudy 58 14.4 57 13.9 97 97 S 15 24 29.83 1010 8 13 0.00 0.00
8:32 am 08:32 Cloudy 61 16 57 14 88 88 S 17 28 29.83 1010 10 16 0.00 0.00
8:53 am 08:53 Cloudy 61 16.1 58 14.4 90 90 S 16 26 29.81 1010 10 16 0.00 0.00
9:51 am 09:51 Cloudy 64 18 57 14 78 78 W 13 20 29.85 1011 10 16 0.00 0.00
9:53 am 09:53 Cloudy 63 17.2 58 14.4 84 84 WSW 13 20 29.87 1012 10 16 0.00 0.00
10:40 am 10:40 Cloudy 65 18.3 59 15 81 81 SW 9 15 29.83 1010 10 16 0.00 0.00
10:53 am 10:53 Mostly Cloudy 66 18.9 58 14.4 75 75 SSW 10 17 29.86 1011 10 16 0.00 0.00
11:33 am 11:33 Partly Cloudy 68 20 58 14.4 70 70 S 10 17 29.83 1010 10 16 0.00 0.00
11:53 am 11:53 Partly Cloudy 70 21.1 59 15 68 68 VRB 6 9 29.85 1011 10 16 0.00 0.00
12:13 pm 12:13 Mostly Cloudy 71 21.7 58 14.4 63 63 WSW 7 11 29.80 1009 10 16 0.00 0.00
12:48 pm 12:48 Cloudy 70 21 57 14 64 64 WNW 6 9 29.83 1010 10 16 0.00 0.00
12:53 pm 12:53 Cloudy 71 21.7 57 13.9 61 61 WNW 8 13 29.85 1011 10 16 0.00 0.00
1:53 pm 13:53 Cloudy 71 21.7 57 13.9 61 61 WNW 6 9 29.84 1011 10 16 0.00 0.00
2:53 pm 14:53 Mostly Sunny 72 22.2 58 14.4 61 61 VRB 7 11 29.82 1010 10 16 0.00 0.00
3:53 pm 15:53 Sunny 72 22.2 58 14.4 61 61 VRB 3 6 29.80 1009 10 16 0.00 0.00
4:53 pm 16:53 Sunny 73 22.8 58 14.4 59 59 ESE 9 15 29.77 1008 10 16 0.00 0.00
5:53 pm 17:53 Sunny 73 22.8 58 14.4 59 59 NNE 3 6 29.80 1009 10 16 0.00 0.00
6:53 pm 18:53 Mostly Cloudy 71 21.7 58 14.4 63 63 N 12 19 29.82 1010 10 16 0.00 0.00
7:53 pm 19:53 Clear 64 17.8 57 13.9 78 78 NNE 7 11 29.83 1010 10 16 0.00 0.00
8:53 pm 20:53 Clear 60 15.6 56 13.3 86 86 NE 6 9 29.85 1011 10 16 0.00 0.00
9:53 pm 21:53 Clear 62 16.7 57 13.9 84 84 NE 8 13 29.87 1012 10 16 0.00 0.00
10:53 pm 22:53 Mostly Cloudy 62 16.7 56 13.3 80 80 NE 7 11 29.88 1012 10 16 0.00 0.00
11:53 pm 23:53 Cloudy 61 16.1 55 12.8 81 81 NNE 12 19 29.89 1012 10 16 0.00 0.00

Powered by AerisWeather